• In United Kingdom
  • List of Countries
  • For 7 days
  • Water Temperature
  • Satellite Maps
  • Weather Map
  • Weather Widgets
  • user-avatar
    Login

    Hourly Weather Sete

    Today, 21 November, Tuesday

    Time Temperature Precipitation Wind Pressure Humidity
    00:00 +9°C° 0 mm 2 mps 765 mmHg 59%
    01:00 +9°C° 0 mm 2 mps 765 mmHg 58%
    02:00 +10°C° 0 mm 2 mps 765 mmHg 56%
    03:00 +10°C° 0 mm 2 mps 765 mmHg 55%
    04:00 +10°C° 0 mm 2 mps 765 mmHg 54%
    05:00 +10°C° 0 mm 2 mps 765 mmHg 54%
    06:00 +9°C° 0 mm 2 mps 765 mmHg 53%
    07:00 +12°C° 0 mm 2 mps 765 mmHg 51%
    08:00 +14°C° 0 mm 2 mps 764 mmHg 48%
    09:00 +15°C° 0 mm 2 mps 764 mmHg 45%
    10:00 +18°C° 0 mm 1 mps 764 mmHg 41%
    11:00 +20°C° 0 mm 1 mps 764 mmHg 38%
    12:00 +22°C° 0 mm 1 mps 764 mmHg 34%
    13:00 +21°C° 0 mm 1 mps 763 mmHg 38%
    14:00 +20°C° 0 mm 1 mps 763 mmHg 42%
    15:00 +19°C° 0 mm 2 mps 763 mmHg 46%
    16:00 +17°C° 0 mm 2 mps 763 mmHg 50%
    17:00 +15°C° 0 mm 2 mps 763 mmHg 54%
    18:00 +13°C° 0 mm 2 mps 763 mmHg 58%
    19:00 +13°C° 0 mm 1 mps 763 mmHg 58%
    20:00 +13°C° 0 mm 1 mps 763 mmHg 58%
    21:00 +12°C° 0 mm 1 mps 763 mmHg 59%
    22:00 +12°C° 0 mm 1 mps 763 mmHg 59%
    23:00 +12°C° 0 mm 1 mps 763 mmHg 59%

    Tomorrow, 22 November, Wednesday

    Time Temperature Precipitation Wind Pressure Humidity
    00:00 +10°C° 0 mm 2 mps 763 mmHg 60%
    01:00 +10°C° 0 mm 2 mps 763 mmHg 62%
    02:00 +10°C° 0 mm 2 mps 762 mmHg 64%
    03:00 +9°C° 0 mm 3 mps 762 mmHg 67%
    04:00 +9°C° 0 mm 3 mps 762 mmHg 68%
    05:00 +9°C° 0 mm 3 mps 762 mmHg 69%
    06:00 +7°C° 0 mm 4 mps 762 mmHg 70%
    07:00 +10°C° 0 mm 4 mps 762 mmHg 67%
    08:00 +11°C° 0 mm 4 mps 762 mmHg 65%
    09:00 +12°C° 0 mm 5 mps 762 mmHg 63%
    10:00 +13°C° 0 mm 5 mps 761 mmHg 68%
    11:00 +14°C° 0 mm 5 mps 761 mmHg 72%
    12:00 +15°C° 0 mm 5 mps 761 mmHg 77%
    13:00 +15°C° 0.1 mm 6 mps 760 mmHg 81%
    14:00 +15°C° 0.1 mm 6 mps 760 mmHg 86%
    15:00 +14°C° 0.1 mm 6 mps 760 mmHg 90%
    16:00 +14°C° 0.1 mm 6 mps 760 mmHg 91%
    17:00 +14°C° 0.1 mm 6 mps 760 mmHg 93%
    18:00 +14°C° 0.1 mm 6 mps 760 mmHg 94%
    19:00 +14°C° 0.1 mm 6 mps 760 mmHg 94%
    20:00 +14°C° 0.1 mm 6 mps 760 mmHg 95%
    21:00 +14°C° 0.1 mm 6 mps 761 mmHg 95%
    22:00 +14°C° 0.1 mm 6 mps 761 mmHg 95%
    23:00 +14°C° 0.1 mm 6 mps 761 mmHg 95%

    Day after tomorrow, 23 November, Thursday

    Time Temperature Precipitation Wind Pressure Humidity
    00:00 +14°C° 0.1 mm 6 mps 761 mmHg 95%
    01:00 +14°C° 0.1 mm 6 mps 761 mmHg 95%
    02:00 +14°C° 0.1 mm 6 mps 761 mmHg 95%
    03:00 +14°C° 0.1 mm 6 mps 761 mmHg 95%
    04:00 +14°C° 0.1 mm 6 mps 761 mmHg 94%
    05:00 +14°C° 0.1 mm 6 mps 761 mmHg 94%
    06:00 +14°C° 0.1 mm 6 mps 762 mmHg 94%
    07:00 +14°C° 0.1 mm 5 mps 762 mmHg 93%
    08:00 +14°C° 0.1 mm 5 mps 762 mmHg 92%
    09:00 +14°C° 0.1 mm 5 mps 763 mmHg 91%
    10:00 +14°C° 0.1 mm 5 mps 763 mmHg 90%
    11:00 +15°C° 0.1 mm 5 mps 762 mmHg 89%
    12:00 +15°C° 0.1 mm 5 mps 762 mmHg 87%
    13:00 +15°C° 0.1 mm 5 mps 762 mmHg 88%
    14:00 +15°C° 0.1 mm 5 mps 762 mmHg 89%
    15:00 +15°C° 0.1 mm 5 mps 762 mmHg 90%
    16:00 +15°C° 0.1 mm 5 mps 763 mmHg 92%
    17:00 +14°C° 0.1 mm 4 mps 763 mmHg 93%
    18:00 +14°C° 0.1 mm 4 mps 763 mmHg 95%
    19:00 +14°C° 0.1 mm 4 mps 763 mmHg 95%
    20:00 +14°C° 0.1 mm 4 mps 764 mmHg 95%
    21:00 +14°C° 0.1 mm 4 mps 764 mmHg 95%
    22:00 +14°C° 0 mm 4 mps 764 mmHg 95%
    23:00 +14°C° 0 mm 4 mps 764 mmHg 95%

    24 November, Friday

    Time Temperature Precipitation Wind Pressure Humidity
    00:00 +14°C° 0 mm 4 mps 764 mmHg 95%
    01:00 +14°C° 0 mm 4 mps 764 mmHg 95%
    02:00 +13°C° 0 mm 4 mps 764 mmHg 95%
    03:00 +13°C° 0 mm 3 mps 764 mmHg 95%
    04:00 +13°C° 0 mm 4 mps 764 mmHg 95%
    05:00 +13°C° 0 mm 4 mps 764 mmHg 95%
    06:00 +13°C° 0 mm 4 mps 764 mmHg 94%
    07:00 +14°C° 0 mm 4 mps 764 mmHg 93%
    08:00 +14°C° 0 mm 5 mps 764 mmHg 92%
    09:00 +14°C° 0 mm 5 mps 764 mmHg 91%
    10:00 +15°C° 0 mm 5 mps 764 mmHg 89%
    11:00 +15°C° 0 mm 6 mps 763 mmHg 88%
    12:00 +16°C° 0 mm 6 mps 763 mmHg 86%
    13:00 +16°C° 0 mm 6 mps 763 mmHg 88%
    14:00 +16°C° 0 mm 6 mps 763 mmHg 89%
    15:00 +16°C° 0 mm 6 mps 762 mmHg 90%
    16:00 +15°C° 0 mm 6 mps 762 mmHg 91%
    17:00 +15°C° 0 mm 6 mps 763 mmHg 93%
    18:00 +15°C° 0 mm 6 mps 763 mmHg 94%
    19:00 +15°C° 0 mm 7 mps 763 mmHg 94%
    20:00 +15°C° 0 mm 7 mps 763 mmHg 94%
    21:00 +15°C° 0 mm 7 mps 763 mmHg 93%
    22:00 +14°C° 0 mm 7 mps 763 mmHg 93%
    23:00 +14°C° 0 mm 7 mps 763 mmHg 93%

    25 November, Saturday

    Time Temperature Precipitation Wind Pressure Humidity
    00:00 +14°C° 0 mm 7 mps 763 mmHg 93%
    01:00 +14°C° 0 mm 7 mps 763 mmHg 93%
    02:00 +14°C° 0 mm 7 mps 762 mmHg 93%
    03:00 +14°C° 0 mm 7 mps 762 mmHg 93%
    04:00 +14°C° 0 mm 7 mps 762 mmHg 93%
    05:00 +14°C° 0 mm 7 mps 762 mmHg 92%
    06:00 +14°C° 0 mm 7 mps 762 mmHg 92%
    07:00 +14°C° 0 mm 7 mps 762 mmHg 90%
    08:00 +15°C° 0 mm 7 mps 762 mmHg 88%
    09:00 +15°C° 0 mm 7 mps 762 mmHg 87%
    10:00 +16°C° 0.1 mm 6 mps 763 mmHg 85%
    11:00 +16°C° 0.1 mm 5 mps 763 mmHg 83%
    12:00 +16°C° 0.1 mm 5 mps 763 mmHg 82%
    13:00 +16°C° 0.1 mm 5 mps 763 mmHg 80%
    14:00 +17°C° 0.1 mm 4 mps 764 mmHg 79%
    15:00 +17°C° 0.1 mm 4 mps 764 mmHg 78%
    16:00 +14°C° 0 mm 5 mps 764 mmHg 78%
    17:00 +13°C° 0 mm 5 mps 765 mmHg 78%
    18:00 +12°C° 0 mm 5 mps 766 mmHg 77%
    19:00 +10°C° 0 mm 5 mps 766 mmHg 77%
    20:00 +10°C° 0 mm 6 mps 767 mmHg 76%
    21:00 +10°C° 0 mm 6 mps 768 mmHg 75%
    22:00 +9°C° 0 mm 6 mps 768 mmHg 76%
    23:00 +9°C° 0 mm 5 mps 768 mmHg 77%

    26 November, Sunday

    Time Temperature Precipitation Wind Pressure Humidity
    00:00 +9°C° 0 mm 5 mps 768 mmHg 78%
    01:00 +8°C° 0 mm 5 mps 768 mmHg 77%
    02:00 +8°C° 0 mm 5 mps 768 mmHg 77%
    03:00 +7°C° 0 mm 5 mps 768 mmHg 77%
    04:00 +7°C° 0 mm 5 mps 769 mmHg 75%
    05:00 +7°C° 0 mm 5 mps 769 mmHg 73%
    06:00 +7°C° 0 mm 5 mps 769 mmHg 72%
    07:00 +7°C° 0 mm 5 mps 769 mmHg 67%
    08:00 +8°C° 0 mm 5 mps 770 mmHg 62%
    09:00 +9°C° 0 mm 5 mps 770 mmHg 58%
    10:00 +10°C° 0 mm 5 mps 770 mmHg 50%
    11:00 +12°C° 0 mm 5 mps 769 mmHg 43%
    12:00 +13°C° 0 mm 5 mps 769 mmHg 35%
    13:00 +13°C° 0 mm 4 mps 769 mmHg 37%
    14:00 +13°C° 0 mm 4 mps 769 mmHg 39%
    15:00 +13°C° 0 mm 3 mps 768 mmHg 41%
    16:00 +11°C° 0 mm 4 mps 769 mmHg 44%
    17:00 +10°C° 0 mm 4 mps 769 mmHg 48%
    18:00 +7°C° 0 mm 4 mps 769 mmHg 51%
    19:00 +6°C° 0 mm 4 mps 769 mmHg 52%
    20:00 +6°C° 0 mm 4 mps 769 mmHg 53%
    21:00 +5°C° 0 mm 4 mps 769 mmHg 54%
    22:00 +5°C° 0 mm 4 mps 769 mmHg 52%
    23:00 +5°C° 0 mm 3 mps 768 mmHg 51%
    Show more